[[{"header":{"parameterUnit":"m.s-1","parameterCategory":1,"la1":30.2991,"la2":30.254,"lo1":-89.0895,"lo2":-89.0444,"dy":0.0017,"dx":0.0017,"nx":28,"ny":28,"refTime":"2026-02-05T09:00:00:Z","depth":0,"parameterNumber":2,"parameterNumberName":"U-component_of_WINDS"},"data":[0,0,0,0,0,0,0,0,0,0,0,0,0,0,0,0,0,0,0,0,0,0,0,0,0,0,0,0,0,0,0,0,0,0,0,0,0,0,0,0,0,0,0,0,0,0,0,0,0,0,0,0,0,0,0,0,0,0,1.9385,1.9385,0,1.9413,1.9413,1.9414,1.939,1.9389,1.9388,1.9387,1.9413,1.9415,1.9417,0,0,0,0,0,0,0,0,0,0,0,0,0,1.9309,1.9311,1.9385,1.9385,1.9386,1.9413,1.9413,1.9414,1.939,1.9389,1.9388,1.9386,1.9413,1.9415,1.9417,0,0,0,0,0,0,0,0,0,0,0,0,0,1.934,1.9311,1.9385,1.9377,1.9377,1.9413,1.9413,1.9414,1.939,1.9389,1.9387,1.9386,1.9412,1.9415,1.9417,1.9462,0,0,1.9424,1.9425,0,0,0,0,0,0,0,0,1.9339,1.9343,1.9378,1.9378,1.9377,1.9396,1.9396,1.943,1.9391,1.9385,1.9387,1.9385,1.9409,1.9411,1.942,1.9463,1.9464,1.9425,1.9426,1.9427,1.9428,0,0,0,0,0,0,0,1.9336,1.9342,1.9396,1.9378,1.9378,1.9372,1.9375,1.9403,1.9405,1.9385,1.9384,1.9387,1.9408,1.9418,1.942,1.9464,1.9425,1.9427,1.9428,1.9429,1.9547,1.9548,0,0,0,0,0,0,1.9335,1.934,1.9395,1.9397,1.9354,1.9374,1.9377,1.9392,1.9404,1.9405,1.9389,1.9386,1.9414,1.9417,1.9421,1.9475,1.9427,1.9429,1.9431,1.9545,1.9547,1.9549,0,0,0,0,0,0,1.9334,1.934,1.9394,1.9368,1.9374,1.9377,1.9393,1.9393,1.9402,1.9407,1.9407,1.9398,1.9413,1.9418,1.9452,1.9475,1.9431,1.9433,1.9543,1.9546,1.9548,1.9583,0,0,0,0,0,0,1.9332,1.934,1.9357,1.9369,1.9376,1.9425,1.9395,1.9395,1.9407,1.9404,1.9416,1.9416,1.9412,1.9449,1.9455,1.9478,1.9435,1.9541,1.9544,1.9547,1.9579,1.9586,1.9592,0,0,0,0,0,1.9329,1.9365,1.9358,1.9365,1.9398,1.9426,1.943,1.9426,1.9409,1.9426,1.9429,1.9416,1.9472,1.9452,1.9459,1.9483,1.954,1.9543,1.9547,1.9577,1.9585,1.9591,0,0,0,0,0,0,1.9355,1.9366,1.9359,1.94,1.9412,1.9422,1.9444,1.9434,1.9452,1.9448,1.9441,1.9444,1.9481,1.9485,1.9463,1.9528,1.9503,1.9508,1.9523,1.9531,1.9537,1.9535,1.9437,0,0,0,0,0,1.9366,1.9389,1.9397,1.9432,1.9439,1.9441,1.9453,1.9449,1.9461,1.9466,1.9472,1.9484,1.9505,1.9518,1.9537,1.958,1.9583,1.96,1.9607,1.9612,1.9616,1.964,1.9648,1.9561,1.9561,1.9561,0,0,1.9387,1.9396,1.9411,1.9438,1.9447,1.9471,1.9445,1.9471,1.9488,1.947,1.9503,1.9508,1.9521,1.956,1.9578,1.9565,1.9641,1.9616,1.962,1.9622,1.9645,1.9653,1.966,1.9564,1.9563,1.9563,0,0,1.9439,1.9448,1.9479,1.949,1.9505,1.9506,1.9513,1.9525,1.9528,1.9561,1.9548,1.9569,1.9604,1.9615,1.9624,1.9682,1.9671,1.9689,1.972,1.9744,1.9751,1.9757,1.9778,1.9785,1.9693,1.9693,1.9693,0,1.9464,1.95,1.9496,1.9523,1.9536,1.9521,1.9552,1.9562,1.9583,1.9591,1.9578,1.9623,1.9631,1.9673,1.9687,1.9695,1.9704,1.9687,1.975,1.9756,1.9762,1.9782,1.9789,1.9695,1.9695,1.9695,1.9695,0,1.953,1.9555,1.9578,1.9599,1.9614,1.9643,1.9644,1.9659,1.9654,1.9657,1.9692,1.9701,1.9722,1.9732,1.9727,1.9774,1.9766,1.9751,1.9726,1.9772,1.9791,1.9798,1.9698,1.9698,1.9697,1.9697,0,0,1.9597,1.9617,1.9626,1.9636,1.9652,1.9671,1.97,1.9722,1.9736,1.9751,1.9775,1.9806,1.9794,1.9805,1.9801,1.9822,1.9868,1.9805,1.9805,1.9816,1.992,1.9931,1.994,1.986,1.9862,1.9863,1.9919,0,1.9649,1.97,1.9699,1.9746,1.977,1.9757,1.9783,1.9795,1.9799,1.9819,1.9823,1.9845,1.9827,1.9834,1.9854,1.9858,1.9888,1.9854,1.9882,1.9883,1.9879,1.9949,1.996,2.0013,1.9927,1.9928,1.9929,0,1.9717,1.9736,1.9786,1.9801,1.981,1.9833,1.9854,1.9873,1.9888,1.9889,1.9903,1.9896,1.9925,1.99,1.994,1.9917,1.9929,1.9933,1.9935,1.9937,1.9908,1.9953,2.003,2.0038,1.994,1.9939,1.9938,0,1.9761,1.9799,1.9834,1.9843,1.9861,1.9877,1.9885,1.9899,1.9912,1.993,1.9939,1.996,1.9971,1.9988,1.9987,1.9969,2.0028,2.0003,2.003,2.003,2.0042,2.0041,2.0121,2.005,2.005,2.005,2.005,0,1.982,1.9851,1.9855,1.9876,1.9911,1.9909,1.9943,1.995,1.9962,1.9984,1.9975,1.9996,1.9994,2.0015,2.0015,2.0048,2.0054,2.0055,2.0055,2.0056,2.0056,2.0063,2.0059,2.0052,2.0052,2.0051,2.0051,0,1.9875,1.9878,1.9916,1.993,1.9935,1.996,1.9972,1.9992,1.9996,2.0025,2.0031,2.0037,2.0061,2.0063,2.0091,2.009,2.0132,2.0127,2.0127,2.0126,2.0153,2.0151,2.024,2.0252,2.0174,2.0175,2.0175,0,1.9912,1.9936,1.9953,1.9968,1.9978,2.0002,2.0016,2.0016,2.0031,2.0051,2.0069,2.0093,2.0112,2.0153,2.0159,2.0181,2.0176,2.0207,2.0179,2.018,2.0177,2.0175,2.0178,2.0211,2.0212,2.0213,2.0214,0,1.9977,1.9978,2.0,2.0023,2.0041,2.0059,2.0075,2.0088,2.0089,2.0107,2.0133,2.0148,2.0178,2.0203,2.0224,2.0232,2.0223,2.0222,2.023,2.0231,2.023,2.0231,2.0141,2.022,2.0219,2.0219,2.0219,2.0218,2.0024,2.0045,2.0061,2.0086,2.0099,2.0115,2.0136,2.0143,2.0164,2.0189,2.0188,2.0217,2.0232,2.026,2.027,2.0293,2.0282,2.0293,2.0295,2.0298,2.0301,2.0227,2.0296,2.0296,2.0296,2.0296,2.0296,0,2.0089,2.0099,2.0122,2.0146,2.0166,2.0158,2.0176,2.0193,2.0219,2.0234,2.0254,2.0285,2.0309,2.0318,2.0341,2.0357,2.0354,2.0363,2.0362,2.0364,2.0309,2.03,2.0366,2.0366,2.0366,2.0366,2.0366,2.0366,2.0125,2.016,2.0164,2.0206,2.0216,2.0245,2.0256,2.0271,2.0284,2.0319,2.0339,2.0345,2.0358,2.0383,2.0404,2.0406,2.0415,2.0426,2.0427,2.0375,2.0368,2.0361,2.0353,2.0428,2.0429,2.048,2.048,2.0481]},{"header":{"parameterUnit":"m.s-1","parameterCategory":1,"la1":30.2991,"la2":30.254,"lo1":-89.0895,"lo2":-89.0444,"dy":0.0017,"dx":0.0017,"nx":28,"ny":28,"refTime":"2026-02-05T09:00:00:Z","depth":0,"parameterNumber":3,"parameterNumberName":"V-component_of_WINDS"},"data":[0,0,0,0,0,0,0,0,0,0,0,0,0,0,0,0,0,0,0,0,0,0,0,0,0,0,0,0,0,0,0,0,0,0,0,0,0,0,0,0,0,0,0,0,0,0,0,0,0,0,0,0,0,0,0,0,0,0,-7.8602,-7.8604,0,-7.879,-7.8792,-7.8794,-7.8718,-7.8714,-7.871,-7.8705,-7.8893,-7.8901,-7.891,0,0,0,0,0,0,0,0,0,0,0,0,0,-7.8174,-7.8183,-7.8602,-7.8604,-7.8607,-7.879,-7.8792,-7.8795,-7.8719,-7.8714,-7.8708,-7.8703,-7.889,-7.89,-7.8911,0,0,0,0,0,0,0,0,0,0,0,0,0,-7.8361,-7.8185,-7.8602,-7.8591,-7.8592,-7.8789,-7.8792,-7.8795,-7.872,-7.8714,-7.8707,-7.8701,-7.8886,-7.8899,-7.8913,-7.9129,0,0,-7.8954,-7.896,0,0,0,0,0,0,0,0,-7.835,-7.8377,-7.859,-7.8592,-7.8594,-7.8724,-7.871,-7.8907,-7.8722,-7.8672,-7.8705,-7.8698,-7.8842,-7.8858,-7.8908,-7.9138,-7.9146,-7.8956,-7.8964,-7.897,-7.8974,0,0,0,0,0,0,0,-7.8338,-7.8368,-7.8676,-7.8594,-7.8596,-7.8576,-7.8595,-7.8747,-7.8791,-7.8675,-7.867,-7.8694,-7.8841,-7.8895,-7.8912,-7.9149,-7.8955,-7.8967,-7.8976,-7.8981,-7.9568,-7.9575,0,0,0,0,0,0,-7.8325,-7.8358,-7.867,-7.8682,-7.8453,-7.8589,-7.861,-7.8689,-7.8789,-7.8798,-7.8699,-7.869,-7.8875,-7.8896,-7.8918,-7.918,-7.897,-7.8983,-7.899,-7.9561,-7.957,-7.9578,0,0,0,0,0,0,-7.8316,-7.8353,-7.8663,-7.8519,-7.8557,-7.8603,-7.8692,-7.8696,-7.875,-7.8808,-7.8814,-7.8747,-7.8871,-7.8899,-7.9078,-7.9185,-7.8989,-7.9001,-7.9552,-7.9563,-7.9574,-7.9705,0,0,0,0,0,0,-7.8304,-7.8351,-7.8434,-7.8521,-7.8565,-7.8821,-7.8699,-7.8704,-7.8774,-7.8763,-7.8854,-7.8862,-7.8868,-7.9058,-7.9092,-7.9201,-7.9012,-7.9542,-7.9557,-7.957,-7.9691,-7.9719,-7.9743,0,0,0,0,0,-7.8289,-7.8462,-7.8439,-7.8477,-7.867,-7.8828,-7.8852,-7.8856,-7.8783,-7.8867,-7.8905,-7.8859,-7.9168,-7.9077,-7.9114,-7.9229,-7.9536,-7.9553,-7.9569,-7.968,-7.9714,-7.9742,0,0,0,0,0,0,-7.8385,-7.8473,-7.8449,-7.8655,-7.8735,-7.8814,-7.8921,-7.8892,-7.8992,-7.8978,-7.8976,-7.8998,-7.9183,-7.9223,-7.9121,-7.9445,-7.9341,-7.9366,-7.9412,-7.9445,-7.947,-7.9457,-7.9023,0,0,0,0,0,-7.843,-7.8552,-7.8622,-7.8798,-7.8839,-7.8874,-7.8942,-7.8938,-7.902,-7.9053,-7.9103,-7.9182,-7.9297,-7.9373,-7.9482,-7.9696,-7.9715,-7.9793,-7.9819,-7.984,-7.9862,-7.998,-8.0016,-7.9632,-7.9632,-7.9632,0,0,-7.8525,-7.8588,-7.8665,-7.8819,-7.888,-7.9005,-7.8902,-7.9038,-7.9131,-7.9072,-7.9246,-7.9286,-7.9374,-7.9573,-7.9663,-7.9612,-7.9972,-7.9861,-7.9878,-7.9888,-8.0001,-8.0037,-8.0069,-7.9644,-7.9642,-7.964,0,0,-7.8762,-7.8822,-7.8976,-7.904,-7.9135,-7.9156,-7.9194,-7.9279,-7.9304,-7.9478,-7.9437,-7.9546,-7.9744,-7.981,-7.9869,-8.0133,-8.0096,-8.0168,-8.0303,-8.0419,-8.0449,-8.0476,-8.0571,-8.0606,-8.0189,-8.019,-8.019,0,-7.8867,-7.9056,-7.9058,-7.9199,-7.9268,-7.9223,-7.9379,-7.944,-7.9565,-7.9613,-7.9555,-7.9804,-7.986,-8.0074,-8.0139,-8.0188,-8.023,-8.0158,-8.0445,-8.0472,-8.0497,-8.0588,-8.0624,-8.0198,-8.0197,-8.0196,-8.0195,0,-7.9182,-7.9313,-7.9426,-7.955,-7.9632,-7.9779,-7.9803,-7.9885,-7.9875,-7.9903,-8.0081,-8.0148,-8.027,-8.032,-8.031,-8.0534,-8.05,-8.0443,-8.0339,-8.0542,-8.0627,-8.0662,-8.021,-8.0207,-8.0204,-8.0202,0,0,-7.9484,-7.9609,-7.9651,-7.9708,-7.9809,-7.9911,-8.0056,-8.0178,-8.0249,-8.0336,-8.0458,-8.0628,-8.0577,-8.0644,-8.0641,-8.0742,-8.0949,-8.0674,-8.0676,-8.0724,-8.1201,-8.1244,-8.1285,-8.0925,-8.0931,-8.0937,-8.1194,0,-7.973,-7.9988,-7.9995,-8.023,-8.0352,-8.0311,-8.0438,-8.0514,-8.0544,-8.0651,-8.0683,-8.0804,-8.0727,-8.0768,-8.0866,-8.0903,-8.1045,-8.0884,-8.1038,-8.1044,-8.1019,-8.1329,-8.1375,-8.1615,-8.1228,-8.1233,-8.1238,0,-8.0052,-8.0153,-8.0401,-8.0487,-8.0539,-8.0653,-8.0766,-8.0869,-8.0954,-8.0968,-8.1045,-8.1028,-8.1175,-8.1066,-8.127,-8.1161,-8.1224,-8.1252,-8.1261,-8.1277,-8.1154,-8.1355,-8.1692,-8.1729,-8.129,-8.1286,-8.1282,0,-8.025,-8.0447,-8.0622,-8.0671,-8.0776,-8.0857,-8.0904,-8.0983,-8.1056,-8.1154,-8.1202,-8.1315,-8.1378,-8.1465,-8.1479,-8.1398,-8.1684,-8.1575,-8.1701,-8.1701,-8.1764,-8.176,-8.2118,-8.1802,-8.1802,-8.1801,-8.18,0,-8.0525,-8.0679,-8.0713,-8.0821,-8.0992,-8.0998,-8.1167,-8.1207,-8.1278,-8.1392,-8.1362,-8.147,-8.148,-8.1591,-8.1601,-8.177,-8.1797,-8.1814,-8.1815,-8.1818,-8.1816,-8.186,-8.1844,-8.1811,-8.1809,-8.1807,-8.1805,0,-8.0776,-8.0805,-8.0993,-8.1077,-8.1102,-8.1225,-8.1296,-8.1399,-8.1426,-8.1571,-8.1605,-8.1648,-8.1777,-8.1799,-8.1949,-8.1957,-8.2159,-8.2142,-8.2131,-8.213,-8.2255,-8.2243,-8.2654,-8.2709,-8.2356,-8.236,-8.2362,0,-8.095,-8.1069,-8.1166,-8.1242,-8.1294,-8.1415,-8.1491,-8.1501,-8.158,-8.1687,-8.1777,-8.1903,-8.2005,-8.2213,-8.2256,-8.2372,-8.2359,-8.2495,-8.2376,-8.2375,-8.2363,-8.2357,-8.2369,-8.2518,-8.2522,-8.2525,-8.2527,0,-8.1258,-8.1267,-8.1378,-8.1495,-8.1587,-8.1679,-8.1766,-8.1829,-8.185,-8.1941,-8.2074,-8.2153,-8.2308,-8.2434,-8.255,-8.2596,-8.2567,-8.2565,-8.26,-8.2605,-8.2595,-8.2604,-8.2195,-8.2555,-8.2553,-8.255,-8.2549,-8.2548,-8.1477,-8.1581,-8.1667,-8.1792,-8.1859,-8.1942,-8.2043,-8.2084,-8.2196,-8.2325,-8.2323,-8.2469,-8.2552,-8.2704,-8.2758,-8.2872,-8.2828,-8.2879,-8.2892,-8.2905,-8.2919,-8.2575,-8.2892,-8.2892,-8.2891,-8.289,-8.289,0,-8.1785,-8.1839,-8.1954,-8.2078,-8.2177,-8.2141,-8.2236,-8.232,-8.245,-8.253,-8.2632,-8.2785,-8.2908,-8.2962,-8.3082,-8.3163,-8.3152,-8.3194,-8.3189,-8.3201,-8.295,-8.2908,-8.3201,-8.3201,-8.3201,-8.3201,-8.3201,-8.3201,-8.1957,-8.2132,-8.2151,-8.2358,-8.241,-8.2555,-8.2612,-8.2688,-8.2753,-8.2926,-8.3029,-8.3064,-8.3134,-8.3259,-8.337,-8.3383,-8.3429,-8.3478,-8.3485,-8.3249,-8.3218,-8.3188,-8.3149,-8.3488,-8.3488,-8.3726,-8.3728,-8.373]}]]